Regional Weather Roundup
Issued by NWS

Home | Current Version | Previous Version | Text Only | Print | Product List | Glossary On
Versions: 1 2 3 4 5 6 7 8 9 10 11 12 13 14 15 16 17 18 19 20 21 22 23 24 25 26 27 28 29 30 31 32 33 34 35 36 37 38 39 40 41 42 43 44 45 46 47 48 49 50
000
ASUS43 KLMK 280502
RWRKY
KENTUCKY REGIONAL WEATHER ROUNDUP
NATIONAL WEATHER SERVICE LOUISVILLE KY
100 AM EDT MON JUL 28 2014

NOTE "FAIR" INDICATES FEW OR NO CLOUDS BELOW 12,000 FEET
WITH NO SIGNIFICANT WEATHER AND/OR OBSTRUCTIONS TO VISIBILITY.

KYZ001>023-026-027-061>063-070>075-280600-
WESTERN AND SOUTH CENTRAL KENTUCKY

CITY           SKY/WX    TMP DP  RH WIND       PRES   REMARKS
PADUCAH        CLEAR     78  60  53 N12       29.95R
HENDERSON      CLEAR     72  57  60 NW6       29.92R
OWENSBORO      CLEAR     74  58  57 N10G20    29.92R
HOPKINSVILLE   CLEAR     77  63  60 NW7       29.93R
BOWLING GREEN  PTCLDY    78  62  57 VRB7      29.90R
GLASGOW        CLEAR     76  60  57 NW6       29.90R
$$

KYZ024-025-028>034-038-045-046-053-280600-
NORTH CENTRAL KENTUCKY

CITY           SKY/WX    TMP DP  RH WIND       PRES   REMARKS
LOUISVILLE/SDF PTCLDY    74  59  59 NW13      29.86R
LOUISVILLE/LOU CLEAR     75  59  57 NW13G22   29.86R
FORT KNOX      CLEAR     71  61  69 NW7       29.88R
$$

KYZ035>037-039>044-047>052-055>060-089>105-280600-
NORTHEAST KENTUCKY

CITY           SKY/WX    TMP DP  RH WIND       PRES   REMARKS
LEXINGTON      PTCLDY    70  62  76 W7        29.87R
COVINGTON      PTCLDY    67  60  78 W6        29.82S
FRANKFORT      CLEAR     70  62  76 W6        29.85R
$$

KYZ054-064>069-076>088-106>120-280600-
SOUTHEAST KENTUCKY

CITY           SKY/WX    TMP DP  RH WIND       PRES   REMARKS
JACKSON        LGT RAIN  68  66  93 VRB3      29.87R
LONDON         CLOUDY    73  68  84 NW6       29.90R
SOMERSET       MOCLDY    68  68 100 CALM      29.90R
MIDDLESBORO    CLOUDY    68  68 100 CALM      29.90R
MONTICELLO     PTCLDY    72  69  90 CALM      29.91R
$$




USA.gov is the U.S. government's official web portal to all federal, state and local government web resources and services.